Tracking 28125 objects as of 2-Oct-2023
HD Live streaming from Space Station
objects crossing your sky now

OPS 4029

Track OPS 4029 now!
OPS 4029 is classified as:


NORAD ID: 12930
Int'l Code: 1981-107A
Perigee: 32,112.0 km
Apogee: 39,437.1 km
Inclination: 6.2 °
Period: 1,435.1 minutes
Semi major axis: 42145 km
RCS: Unknown
Launch date: October 31, 1981
Source: United States (US)
Launch site: AIR FORCE EASTERN TEST RANGE (AFETR)
Your satellite tracking list
Your tracking list is empty




NASA's NSSDC Master Catalog

Two Line Element Set (TLE):
1 12930U 81107A   23054.95127780 0.00000000  00000-0  00000-0 0    08
2 12930   6.1509 355.8458 0869017   7.8973 353.3921  1.00340319    08
Source of the keplerian elements: McCants